Regional Weather Roundup
Issued by NWS

Home | Current Version | Previous Version | Graphics & Text | Print | Product List | Glossary On
Versions: 1 2 3 4 5 6 7 8 9 10 11 12 13 14 15 16 17 18 19 20 21 22 23 24 25 26 27 28 29 30 31 32 33 34 35 36 37 38 39 40 41 42 43 44 45 46 47 48 49 50
000
ASUS43 KFSD 270810
RWRSD

WEATHER ROUNDUP FOR SOUTH DAKOTA
NATIONAL WEATHER SERVICE SIOUX FALLS SD
300 AM CDT WED MAY 27 2015

NOTE: "FAIR" INDICATES FEW OR NO CLOUDS BELOW 12,000 FEET WITH NO
SIGNIFICANT WEATHER AND/OR OBSTRUCTIONS TO VISIBILITY.


SDZ001>005-009-010-012>017-270900-
NORTHWEST AND NORTH CENTRAL SOUTH DAKOTA

CITY           SKY/WX    TMP DP  RH WIND       PRES   REMARKS
BUFFALO          N/A     53  45  74 CALM      29.90R
FAITH            N/A     50  44  80 S8        29.96S
MOBRIDGE       CLEAR     53  51  93 CALM      29.91R
$$

SDZ012>016-024>037-041>051-057-063-072>074-270900-
SOUTHWEST AND SOUTH CENTRAL SOUTH DAKOTA

CITY           SKY/WX    TMP DP  RH WIND       PRES   REMARKS
RAPID CTY ARPT PTCLDY    52  48  86 SE6       29.97F
PIERRE         CLEAR     56  48  74 W7        29.93F
CUSTER         MOCLDY    48  45  89 SW3       30.05F
ELLSWORTH AFB  PTCLDY    55  48  77 S8        29.97S
PHILIP         CLEAR     50  46  86 CALM      29.97S
PINE RIDGE     MOCLDY    54  46  74 W3        30.00S
SPEARFISH      FAIR      55  46  71 SW3       29.98F
WINNER         FAIR      58  47  66 SW7       29.97S
$$

SDZ004>011-016>023-039-040-270900-
NORTHEAST SOUTH DAKOTA

CITY           SKY/WX    TMP DP  RH WIND       PRES   REMARKS
ABERDEEN       CLEAR     53  50  89 W3        29.89S
WATERTOWN      CLEAR     59  49  69 W8        29.88S
BROOKINGS      CLEAR     55  52  88 SW5       29.91R
SISSETON         N/A     62  50  64 W7        29.83R
$$

SDZ017-020-022-023-036>040-048>070-270900-
SOUTHEAST SOUTH DAKOTA

CITY           SKY/WX    TMP DP  RH WIND       PRES   REMARKS
SIOUX FALLS    CLEAR     52  50  93 W3        29.91R
HURON          PTCLDY    54  50  86 CALM      29.91R
CHAMBERLAIN    CLEAR     55  50  83 W6        29.95S
MITCHELL       CLEAR     58  51  78 SW5       29.92S
YANKTON        CLEAR     55  50  82 W5        29.92R
$$

ABBREVIATIONS USED IN REMARKS
   TC - TEMPERATURE IN CELSIUS
  WCI - WIND CHILL INDEX
   HX - HEAT INDEX
  VSB - VISIBILITY



USA.gov is the U.S. government's official web portal to all federal, state and local government web resources and services.